Location: Southlake
(32.9412°N, 97.1342°W)
Time: 08:50:13
(UTC+00:00)

Cosmos 1500 Rocket - Pass Details

Date: 03 December 2021
Orbit: 602 x 632 km, 82.5° (Epoch: 26 January)

Event Time Altitude Azimuth Distance (km) Brightness Sun altitude
Rises 12:36:08 0° 186° (S) 2,891 7.2 -8.4°
Reaches altitude 10° 12:38:21 10° 187° (S) 1,992 6.4 -7.9°
Maximum altitude 12:42:46 85° 276° (W) 637 3.6 -7.1°
Drops below altitude 10° 12:47:15 10° 5° (N) 2,016 6.0 -6.2°
Sets 12:49:30 0° 6° (N) 2,929 6.8 -5.8°
